Beaufort, NC

4:38 PM EST on December 12, 2019 (GMT -0500)
Smith

Weather History for KMRH - October, 2019

Change the Weather History Date:

Tuesday, October 1, 2019

  Actual Average Record
Temperature  
Mean Temperature 77 °F -  
Max Temperature 84 °F 79 °F 89 °F (1986)
Min Temperature 69 °F 61 °F 43 °F (1967)
Cooling Degree Days 12    
Growing Degree Days 27 (Base 50)    
Moisture  
Dew Point 67 °F    
Average Humidity 74    
Maximum Humidity 93    
Minimum Humidity 44    
Precipitation  
Precipitation 0.00 in - - ()
Sea Level Pressure  
Sea Level Pressure 30.10 in    
Wind  
Wind Speed 6 mph (NE)    
Max Wind Speed 10 mph    
Max Gust Speed -    
Visibility 10 miles    
Events      
Averages and records for this station are not official NWS values.
T = Trace of Precipitation, MM = Missing Value Source: NWS Daily Summary

Daily Weather History Graph

Daily Weather History Graph

Search for Another Location

Airport or City:

Astronomy

Oct. 01, 2019 Rise Set
Actual Time 7:01 AM EDT 6:51 PM EDT
Civil Twilight 6:35 AM EDT 7:16 PM EDT
Nautical Twilight 6:06 AM EDT 7:45 PM EDT
Astronomical Twilight 5:37 AM EDT 8:14 PM EDT
Moon 10:07 AM EDT (10/1) 9:10 PM EDT (10/1)
Length of Visible Light 12h 40m
Length of Day
11h 49m
Waxing Crescent, 12% of the Moon is Illuminated
Oct 1
Waxing Crescent
Oct 5
First Quarter
Oct 13
Full
Oct 21
Last Quarter
Oct 27
New

Hourly Weather History & Observations

Time (EDT) Temp. Heat Index Dew Point Humidity Pressure Visibility Wind Dir Wind Speed Gust Speed Precip Events Conditions
12:58 AM 73.0 °F - 70.0 °F 90% 30.12 in 10.0 mi North 8.1 mph - N/A   Clear
1:58 AM 72.0 °F - 70.0 °F 93% 30.12 in 10.0 mi NNE 5.8 mph - N/A   Clear
2:58 AM 72.0 °F - 70.0 °F 93% 30.10 in 10.0 mi NNE 4.6 mph - N/A   Clear
3:58 AM 71.1 °F - 69.1 °F 93% 30.09 in 10.0 mi NNE 5.8 mph - N/A   Clear
4:58 AM 71.1 °F - 69.1 °F 93% 30.09 in 10.0 mi NNE 4.6 mph - N/A   Clear
5:58 AM 71.1 °F - 69.1 °F 93% 30.10 in 10.0 mi NNE 4.6 mph - N/A   Clear
6:58 AM 71.1 °F - 69.1 °F 93% 30.10 in 10.0 mi NNE 4.6 mph - N/A   Clear
7:58 AM 73.0 °F - 70.0 °F 90% 30.12 in 10.0 mi NNE 3.5 mph - N/A   Clear
8:58 AM 77.0 °F - 71.1 °F 82% 30.14 in 10.0 mi NNE 8.1 mph - N/A   Clear
9:58 AM 79.0 °F - 70.0 °F 74% 30.14 in 10.0 mi ENE 10.4 mph - N/A   Mostly Cloudy
10:15 AM 81.0 °F 84.4 °F 70.0 °F 69% 30.14 in 10.0 mi NNE 9.2 mph - N/A   Mostly Cloudy
10:48 AM 81.0 °F 84.1 °F 69.1 °F 67% 30.14 in 10.0 mi NNE 8.1 mph - N/A   Mostly Cloudy
10:58 AM 80.1 °F 82.7 °F 68.0 °F 67% 30.14 in 10.0 mi NE 9.2 mph - N/A   Partly Cloudy
11:58 AM 82.9 °F 84.4 °F 64.0 °F 53% 30.14 in 10.0 mi NE 9.2 mph - N/A   Clear
12:58 PM 84.0 °F 84.0 °F 60.1 °F 44% 30.12 in 10.0 mi NE 10.4 mph - N/A   Clear
1:58 PM 84.0 °F 85.8 °F 64.9 °F 53% 30.10 in 10.0 mi ESE 8.1 mph - N/A   Clear
2:58 PM 82.9 °F 83.7 °F 62.1 °F 49% 30.09 in 10.0 mi ESE 10.4 mph - N/A   Clear
3:58 PM 82.9 °F 84.6 °F 64.9 °F 54% 30.07 in 10.0 mi East 8.1 mph - N/A   Clear
4:58 PM 81.0 °F 82.5 °F 64.0 °F 56% 30.06 in 10.0 mi East 8.1 mph - N/A   Clear
5:58 PM 80.1 °F 81.5 °F 63.0 °F 56% 30.06 in 10.0 mi East 5.8 mph - N/A   Clear
6:58 PM 77.0 °F - 57.9 °F 52% 30.06 in 10.0 mi Calm Calm - N/A   Clear
7:58 PM 73.9 °F - 61.0 °F 64% 30.06 in 10.0 mi Calm Calm - N/A   Clear
8:58 PM 72.0 °F - 64.0 °F 76% 30.07 in 10.0 mi East 3.5 mph - N/A   Clear
9:58 PM 71.1 °F - 66.0 °F 84% 30.06 in 10.0 mi Calm Calm - N/A   Clear
10:58 PM 70.0 °F - 66.9 °F 90% 30.07 in 10.0 mi Calm Calm - N/A   Clear
11:58 PM 69.1 °F - 66.9 °F 93% 30.06 in 10.0 mi Calm Calm - N/A   Clear